EW3244 Weather Reports


Display with metric or nautical units.
time (UTC)temp
F
wind
direction
speed
MPH
gust
MPH
rain 1hr
in
rain 24hr
in
rain mn
in
humidity
%
barometer
mb
20260905050054 51 49 0.0 3.0 0.00 0.20 0.00 54 996.3
20260905044553 50 45 1.0 4.0 0.00 0.20 0.00 53 996.3
20260905043051 50 61 0.0 1.0 0.00 0.20 0.00 53 996.1
20260905041549 50 61 0.0 1.0 0.00 0.20 0.00 54 995.9
20260905040047 50 61 0.0 1.0 0.00 0.20 0.00 56 995.8
20260905034548 49 61 0.0 1.0 0.00 0.20 0.00 59 995.6
20260905033042 50 61 0.0 1.0 0.00 0.20 0.00 61 995.4
20260905031541 50 61 0.0 2.0 0.00 0.20 0.00 61 995.1
20260905030040 50 61 0.0 1.0 0.00 0.20 0.00 62 995.1
20260905024551 50 61 0.0 1.0 0.00 0.20 0.00 63 995.0
20260905023042 50 61 0.0 3.0 0.00 0.20 0.00 61 995.0
20260905021541 50 64 0.0 5.0 0.00 0.20 0.00 61 994.9
20260905020037 50 57 1.0 5.0 0.00 0.20 0.00 60 994.9
20260905014533 50 54 2.0 4.0 0.00 0.20 0.00 61 994.8
20260905013033 50 66 1.0 3.0 0.00 0.20 0.00 59 994.5
20260905011529 50 66 1.0 3.0 0.00 0.20 0.00 60 994.6
20260905010028 50 66 1.0 2.0 0.00 0.20 0.00 64 994.5
20260905004525 50 66 1.0 2.0 0.00 0.20 0.00 68 994.4
20260905003023 50 66 0.0 2.0 0.00 0.20 0.00 69 994.4
20260905001521 51 66 0.0 3.0 0.00 0.20 0.00 71 994.3
20260905000019 51 92 0.0 3.0 0.00 0.20 0.00 70 994.3
20260904234533 51 83 1.0 7.0 0.00 0.20 0.00 71 994.3
20260904233015 52 92 1.0 4.0 0.00 0.20 0.00 73 994.3
20260904231516 53 161 0.0 5.0 0.00 0.20 0.00 73 994.2
20260904230009 53 96 3.0 7.0 0.00 0.20 0.00 75 994.1
20260904224506 54 71 4.0 10.0 0.00 0.20 0.00 73 994.0
20260904223004 54 85 3.0 10.0 0.00 0.20 0.00 71 993.9
20260904221502 54 86 1.0 10.0 0.00 0.20 0.00 70 993.9
20260904214607 54 58 1.0 4.0 0.00 0.20 0.20 70 993.7
20260904213059 54 59 2.0 4.0 0.00 0.20 0.20 72 993.6
20260904211604 54 88 1.0 5.0 0.00 0.20 0.20 74 993.6
20260904210056 55 76 2.0 5.0 0.00 0.20 0.20 73 993.6
20260904204556 54 74 2.0 5.0 0.00 0.20 0.20 72 993.7
20260904203054 54 65 2.0 3.0 0.00 0.20 0.20 75 993.6
20260904201601 54 62 1.0 4.0 0.00 0.20 0.20 76 993.8
20260904200057 54 47 1.0 4.0 0.00 0.20 0.20 78 993.7
20260904194557 55 72 1.0 4.0 0.00 0.20 0.20 79 993.6
20260904193052 55 52 3.0 7.0 0.00 0.20 0.20 80 993.8
20260904191552 56 48 2.0 6.0 0.00 0.20 0.20 81 993.7
20260904190051 56 66 4.0 8.0 0.00 0.20 0.20 81 993.7
20260904184603 57 47 2.0 6.0 0.00 0.20 0.20 80 993.8
20260904183050 58 64 3.0 7.0 0.00 0.20 0.20 80 993.9
20260904181550 58 50 3.0 6.0 0.00 0.20 0.20 79 993.9
20260904174550 59 27 2.0 5.0 0.00 0.20 0.20 77 993.8
20260904173051 59 59 3.0 7.0 0.00 0.20 0.20 77 993.8
20260904171555 59 68 3.0 6.0 0.00 0.20 0.20 77 993.9
20260904170048 59 54 3.0 6.0 0.00 0.20 0.20 76 993.8
20260904164548 60 52 3.0 6.0 0.00 0.20 0.20 76 993.7
20260904163054 60 62 2.0 5.0 0.00 0.20 0.20 76 993.8
20260904161545 60 50 3.0 6.0 0.00 0.20 0.20 75 993.8
20260904160045 60 42 2.0 4.0 0.00 0.20 0.20 75 993.8
20260904154543 60 40 2.0 5.0 0.00 0.20 0.20 74 994.0
20260904153049 61 57 4.0 11.0 0.00 0.20 0.20 73 994.2
20260904151540 61 38 7.0 11.0 0.00 0.20 0.20 72 994.3
20260904150044 61 48 3.0 11.0 0.00 0.20 0.20 74 994.4
20260904144538 61 39 5.0 9.0 0.00 0.20 0.20 74 994.5
20260904143036 62 37 3.0 7.0 0.00 0.20 0.20 75 994.7
20260904141546 62 291 4.0 9.0 0.00 0.20 0.20 74 994.7
20260904140034 62 18 4.0 10.0 0.00 0.20 0.20 75 994.8
20260904134530 61 32 5.0 11.0 0.00 0.20 0.20 75 995.0
20260904133026 61 51 3.0 8.0 0.00 0.20 0.20 79 995.2
20260904131523 60 57 4.0 8.0 0.00 0.20 0.20 79 995.4
20260904130021 60 43 3.0 8.0 0.00 0.20 0.20 79 995.7
20260904124520 60 46 3.0 8.0 0.00 0.20 0.20 80 995.8
20260904123019 60 67 4.0 10.0 0.00 0.20 0.20 80 995.9
20260904121520 60 9 3.0 9.0 0.00 0.20 0.20 81 995.9
20260904120018 60 34 1.0 8.0 0.00 0.20 0.20 80 996.0
20260904114532 59 47 3.0 8.0 0.00 0.20 0.20 80 996.1
20260904113011 59 45 3.0 9.0 0.00 0.20 0.20 79 996.4
20260904111508 59 9 3.0 7.0 0.00 0.20 0.20 78 996.5
20260904110020 59 21 2.0 7.0 0.00 0.20 0.20 75 996.6
20260904104504 59 28 2.0 6.0 0.00 0.20 0.20 74 996.9
20260904103001 59 64 3.0 9.0 0.00 0.20 0.20 74 997.1
20260904101604 58 53 3.0 7.0 0.00 0.20 0.20 69 996.9
20260904100056 58 40 2.0 6.0 0.00 0.20 0.20 62 997.2
20260904094552 57 56 4.0 9.0 0.00 0.20 0.20 50 997.3
20260904093049 57 26 2.0 6.0 0.00 0.20 0.20 43 997.5
20260904091548 57 50 3.0 8.0 0.00 0.20 0.20 33 997.5
20260904090046 56 63 2.0 6.0 0.02 0.20 0.20 28 997.5
20260904084545 56 32 1.0 3.0 0.06 0.20 0.20 28 997.6
20260904083052 55 343 0.0 2.0 0.08 0.20 0.20 31 997.6
20260904081539 54 324 0.0 3.0 0.09 0.20 0.20 33 997.7
20260904080037 54 297 0.0 3.0 0.07 0.18 0.18 36 997.9
20260904074543 53 291 0.0 3.0 0.06 0.15 0.15 38 997.9
20260904073034 53 280 0.0 4.0 0.04 0.13 0.13 40 998.0
20260904071535 53 282 1.0 4.0 0.05 0.12 0.12 41 998.1
20260904070031 53 264 0.0 3.0 0.06 0.10 0.10 42 998.3
20260904064529 53 343 0.0 3.0 0.08 0.09 0.09 41 998.3
20260904063041 52 346 0.0 0.0 0.07 0.08 0.08 44 998.5
20260904061526 52 346 0.0 0.0 0.06 0.07 0.07 49 998.7
20260904060030 52 346 0.0 2.0 0.04 0.04 0.04 49 998.8
20260904054523 53 23 0.0 1.0 0.02 0.02 0.02 41 998.9
20260904053030 54 26 0.0 0.0 0.01 0.01 0.01 38 998.9
20260904051521 54 26 0.0 1.0 0.01 0.01 0.01 38 999.0